Location: Unspecified
(0.0000°N, 0.0000°E)
Time: 18:08:49
(UTC+00:00)

Vanguard 1 - Pass Details

Date: 18 April 2026
Orbit: 654 x 3817 km, 34.2° (Epoch: 18 May)

Event Time Altitude Azimuth Distance (km) Brightness Sun altitude
Rises 18:09:49 0° 223° (SW) 4,863 14.1 -2.6°
Reaches altitude 10° 18:12:29 10° 220° (SW) 4,193 13.7 -3.2°
Maximum altitude 18:24:44 64° 139° (SE) 2,950 12.3 -6.2°
Drops below altitude 10° 18:45:47 10° 62° (ENE) 6,786 13.9 -11.4°
Sets 18:51:32 0° 60° (ENE) 7,932 14.2 -12.8°
